Date String (YYYY-MM-DD hh:mm:ss) UTC,Instrument flags,Ambient pressure (hPa),Sample flow (lpm),Bypass flow (lpm),Sample temperature (°C),Ambient temperature (°C),ASC tube jacket temperature (°C),LED temperature (°C),Box temperature (°C),Sample RH (%),Span deviation,Mass concentration (μg/m³),Mass concentration (μg/m³),Mass concentration (μg/m³)
DateTimeUTC,F1_M11,P_M11,Q1_M11,Q2_M11,T1_M11,T2_M11,T3_M11,T4_M11,T5_M11,U1_M11,ZSPAN_M11,X2_M11,X0_M11,X1_M11
2021-11-09 14:00:00,,0830.5,4.99,0.00,22.8,22.0,00.0,32.0,24.6,19.2,-001.0,0015.64,0024.17,0014.31
2021-11-09 14:01:00,,0830.6,5.00,0.00,22.9,22.0,00.0,32.0,24.6,19.2,-001.0,0015.75,0024.30,0014.39
2021-11-09 14:02:00,,0830.5,5.01,0.00,22.9,22.0,00.0,31.9,24.6,19.1,-001.3,0015.79,0025.00,0014.41
2021-11-09 14:03:00,,0830.6,5.00,0.00,22.9,22.1,00.0,31.9,24.7,19.1,-001.3,0015.80,0025.87,0014.43
2021-11-09 14:04:00,,0830.6,4.99,0.00,22.9,22.1,00.0,31.9,24.7,19.0,-001.2,0015.76,0025.48,0014.41
2021-11-09 14:05:00,,0830.6,5.01,0.00,22.9,22.1,00.0,31.9,24.7,19.0,-001.1,0015.75,0026.31,0014.37
2021-11-09 14:06:00,,0830.5,5.00,0.00,22.9,22.1,00.0,31.9,24.7,18.9,-001.1,0015.70,0026.45,0014.31
2021-11-09 14:07:00,,0830.4,5.00,0.00,22.9,22.1,00.0,31.9,24.7,18.7,-001.2,0015.55,0026.22,0014.22
2021-11-09 14:08:00,,0830.5,5.00,0.00,22.9,22.1,00.0,31.9,24.7,18.7,-001.2,0015.47,0026.90,0014.12
2021-11-09 14:09:00,,0830.5,5.00,0.00,22.9,22.1,00.0,31.9,24.7,18.7,-001.4,0015.40,0027.14,0014.04
2021-11-09 14:10:00,,0830.4,4.99,0.00,22.9,22.1,00.0,31.9,24.7,18.7,-001.4,0015.31,0027.31,0013.99
2021-11-09 14:11:00,,0830.5,4.99,0.00,22.9,22.2,00.0,31.9,24.7,18.7,-001.3,0015.23,0027.36,0013.93
2021-11-09 14:12:00,,0830.5,5.01,0.00,22.9,22.2,00.0,31.9,24.8,18.8,-001.5,0015.17,0027.35,0013.88
2021-11-09 14:13:00,,0830.5,5.00,0.00,23.0,22.2,00.0,32.0,24.8,18.8,-001.3,0015.14,0026.77,0013.88
2021-11-09 14:14:00,,0830.5,5.00,0.00,23.0,22.2,00.0,32.0,24.8,18.8,-001.3,0015.05,0025.64,0013.85
2021-11-09 14:15:00,,0830.5,5.00,0.00,23.0,22.2,00.0,32.0,24.8,18.8,-001.5,0015.05,0025.48,0013.87
2021-11-09 14:16:00,,0830.5,4.99,0.00,23.0,22.2,00.0,32.0,24.8,18.9,-001.6,0015.09,0024.20,0013.91
2021-11-09 14:17:00,,0830.5,5.01,0.00,23.0,22.2,00.0,32.0,24.8,18.9,-001.4,0015.15,0023.50,0013.95
2021-11-09 14:18:00,,0830.5,5.01,0.00,23.0,22.2,00.0,32.0,24.8,19.0,-001.2,0015.32,0024.38,0014.03
2021-11-09 14:19:00,,0830.5,4.99,0.00,23.0,22.2,00.0,32.0,24.8,19.0,-001.0,0015.43,0024.89,0014.13
2021-11-09 14:20:00,,0830.6,5.01,0.00,23.0,22.2,00.0,32.0,24.8,19.0,-000.7,0015.59,0025.61,0014.21
2021-11-09 14:21:00,,0830.6,4.99,0.00,23.0,22.2,00.0,32.0,24.8,18.8,-000.6,0015.68,0025.40,0014.25
2021-11-09 14:22:00,,0830.5,5.00,0.00,23.0,22.2,00.0,32.0,24.8,18.7,-000.6,0015.69,0025.26,0014.25
2021-11-09 14:23:00,,0830.4,5.00,0.00,23.0,22.2,00.0,32.0,24.8,18.7,-000.5,0015.72,0025.37,0014.25
2021-11-09 14:24:00,,0830.5,5.00,0.00,23.1,22.3,00.0,32.0,24.9,18.7,-000.7,0015.72,0025.41,0014.23
2021-11-09 14:25:00,,0830.6,4.99,0.00,23.1,22.3,00.0,32.0,24.8,18.7,-000.8,0015.74,0025.95,0014.23
2021-11-09 14:26:00,,0830.6,5.00,0.00,23.0,22.2,00.0,32.0,24.8,18.8,-000.4,0015.76,0026.97,0014.21
2021-11-09 14:27:00,,0830.6,5.01,0.00,23.0,22.2,00.0,32.0,24.8,19.0,-000.3,0015.75,0028.14,0014.12
2021-11-09 14:28:00,,0830.6,5.01,0.00,23.0,22.1,00.0,32.0,24.7,19.0,-000.4,0015.71,0028.63,0014.08
2021-11-09 14:29:00,,0830.4,4.99,0.00,22.9,22.1,00.0,32.0,24.7,19.0,-000.7,0015.59,0028.30,0014.03
2021-11-09 14:30:00,,0830.4,5.00,0.00,22.9,22.1,00.0,32.0,24.7,19.1,-001.0,0015.51,0027.61,0013.97
2021-11-09 14:31:00,,0830.5,5.01,0.00,22.9,22.1,00.0,32.0,24.7,19.2,-001.1,0015.41,0026.73,0013.90
2021-11-09 14:32:00,,0830.4,4.99,0.00,22.9,22.1,00.0,32.0,24.7,19.2,-001.3,0015.38,0026.41,0013.88
2021-11-09 14:33:00,,0830.4,5.01,0.00,23.0,22.2,00.0,32.0,24.8,19.2,-001.3,0015.44,0027.07,0013.93
2021-11-09 14:34:00,,0830.5,4.98,0.00,23.0,22.2,00.0,32.0,24.8,19.1,-001.3,0015.42,0027.57,0013.92
2021-11-09 14:35:00,,0830.6,5.01,0.00,23.0,22.2,00.0,32.0,24.8,19.2,-001.2,0015.44,0027.58,0013.91
2021-11-09 14:36:00,,0830.6,5.01,0.00,23.0,22.3,00.0,32.0,24.9,19.3,-001.1,0015.44,0027.14,0013.93
2021-11-09 14:37:00,,0830.6,4.99,0.00,23.0,22.3,00.0,32.0,24.9,19.6,-001.2,0015.46,0026.31,0013.95
2021-11-09 14:38:00,,0830.6,5.00,0.00,23.0,22.3,00.0,32.0,24.9,19.5,-001.1,0015.50,0026.26,0014.02
2021-11-09 14:39:00,,0830.6,4.99,0.00,23.1,22.3,00.0,32.0,24.9,19.4,-001.1,0015.56,0025.75,0014.07
2021-11-09 14:40:00,,0830.5,5.01,0.00,23.1,22.3,00.0,32.1,24.9,19.4,-001.0,0015.60,0025.32,0014.09
2021-11-09 14:41:00,,0830.5,5.01,0.00,23.1,22.3,00.0,32.1,24.9,19.3,-000.7,0015.66,0024.27,0014.12
2021-11-09 14:42:00,,0830.4,5.00,0.00,23.1,22.4,00.0,32.1,25.0,19.3,-000.6,0015.64,0024.43,0014.17
2021-11-09 14:43:00,,0830.4,5.00,0.00,23.1,22.4,00.0,32.1,25.0,19.3,-000.5,0015.68,0024.84,0014.21
2021-11-09 14:44:00,,0830.5,5.00,0.00,23.1,22.4,00.0,32.1,25.0,19.1,-000.6,0015.67,0024.48,0014.20
2021-11-09 14:45:00,,0830.5,5.00,0.00,23.1,22.4,00.0,32.1,25.0,19.3,-000.8,0015.72,0024.24,0014.23
2021-11-09 14:46:00,,0830.5,5.00,0.00,23.2,22.4,00.0,32.1,25.0,19.1,-000.7,0015.71,0024.12,0014.23
2021-11-09 14:47:00,,0830.6,4.99,0.00,23.2,22.4,00.0,32.1,25.0,18.9,-000.7,0015.73,0024.25,0014.21
2021-11-09 14:48:00,,0830.6,5.00,0.00,23.2,22.5,00.0,32.1,25.0,18.8,-000.8,0015.62,0023.79,0014.12
2021-11-09 14:49:00,,0830.6,4.99,0.00,23.2,22.5,00.0,32.1,25.0,19.0,-000.9,0015.46,0022.70,0014.02
2021-11-09 14:50:00,,0830.6,5.01,0.00,23.2,22.5,00.0,32.2,25.0,19.2,-001.0,0015.32,0022.39,0013.93
2021-11-09 14:51:00,,0830.6,4.99,0.00,23.2,22.5,00.0,32.2,25.1,18.9,-001.0,0015.16,0022.06,0013.82
2021-11-09 14:52:00,,0830.5,5.00,0.00,23.3,22.5,00.0,32.2,25.1,18.8,-001.1,0015.01,0022.18,0013.71
2021-11-09 14:53:00,,0830.5,5.00,0.00,23.3,22.5,00.0,32.2,25.1,19.0,-000.9,0014.98,0022.32,0013.65
2021-11-09 14:54:00,,0830.5,5.00,0.00,23.3,22.5,00.0,32.2,25.1,18.8,-001.0,0014.85,0021.84,0013.53
2021-11-09 14:55:00,,0830.6,5.01,0.00,23.3,22.5,00.0,32.2,25.1,18.8,-000.9,0014.72,0021.69,0013.44
2021-11-09 14:56:00,,0830.5,5.00,0.00,23.3,22.6,00.0,32.2,25.1,18.9,-000.9,0014.61,0021.30,0013.38
2021-11-09 14:57:00,,0830.5,5.00,0.00,23.3,22.6,00.0,32.2,25.1,19.1,-000.9,0014.65,0021.71,0013.43
2021-11-09 14:58:00,,0830.5,4.99,0.00,23.3,22.6,00.0,32.2,25.1,19.2,-000.9,0014.77,0022.00,0013.55
2021-11-09 14:59:00,,0830.5,5.00,0.00,23.3,22.6,00.0,32.3,25.2,19.2,-000.9,0014.99,0022.65,0013.76
